Вернуться в каталог

ONEWEB-0006

АктивенСвязьPO
NORAD 44061·PAYLOAD·🇬🇧 United Kingdom

Запущен Feb 27, 2019 с Guiana Space Centre

Loading…

Ближайшие Пролёты (ближайшие 24 часа)

TLE

СвежийSource: CelesTrak SupGP

Эпоха: Sep 14, 2026, 11:53 UTC

1 44061C 19010E   26257.49564072  .00000396  00000+0  10535-2 0  2575
2 44061  87.8993 241.3844 0001893  84.5158 339.3264 13.15552674    19

Отслеживайте ONEWEB-0006 в реальном времени с AllMySat

Download on the App Store